Winfield, KS

5:42 AM CDT on August 23, 2017 (GMT -0500)
Strother

Weather History for KWLD - March, 2014

Change the Weather History Date:

Monday, March 3, 2014

  Actual Average Record
Temperature  
Mean Temperature 8 °F -  
Max Temperature 19 °F 49 °F 70 °F (2011)
Min Temperature -4 °F 27 °F -4 °F (2014)
Degree Days  
Heating Degree Days 58    
Moisture  
Dew Point -2 °F    
Average Humidity 63    
Maximum Humidity 84    
Minimum Humidity 43    
Precipitation  
Precipitation 0.02 in - - ()
Sea Level Pressure  
Sea Level Pressure 30.49 in    
Wind  
Wind Speed 9 mph (North)    
Max Wind Speed 16 mph    
Max Gust Speed 24 mph    
Visibility 9 miles    
Events Snow    
Averages and records for this station are not official NWS values.
T = Trace of Precipitation, MM = Missing Value Source: NWS Daily Summary

Daily Weather History Graph

Daily Weather History Graph

Search for Another Location

Airport or City:

Trip Planner

Search our weather history database for the weather conditions in past years. The results will help you decide how hot, cold, wet, or windy it might be!

Date:

Astronomy

Mar. 03, 2014 Rise Set
Actual Time 6:56 AM CST 6:24 PM CST
Civil Twilight 6:30 AM CST 6:50 PM CST
Nautical Twilight 6:00 AM CST 7:20 PM CST
Astronomical Twilight 5:30 AM CST 7:50 PM CST
Moon 8:09 AM CST (3/3) 9:23 PM CST (3/3)
Length of Visible Light 12h 19m
Length of Day
11h 27m
Waxing Crescent, 8% of the Moon is Illuminated
Mar 3
Waxing Crescent
Mar 8
First Quarter
Mar 16
Full
Mar 23
Last Quarter
Mar 30
New

Hourly Weather History & Observations

Time (CST) Temp. Windchill Dew Point Humidity Pressure Visibility Wind Dir Wind Speed Gust Speed Precip Events Conditions
12:26 AM 5.0 °F -13.0 °F 1.0 °F 84% 30.49 in 1.0 mi North 15.0 mph 24.2 mph 0.01 in Snow Light Snow
12:54 AM 5.0 °F -11.6 °F 1.0 °F 84% 30.57 in 1.5 mi North 12.7 mph - 0.01 in Snow Light Snow
1:03 AM 5.0 °F -10.8 °F 1.0 °F 84% 30.49 in 2.0 mi North 11.5 mph - 0.00 in Snow Light Snow
1:12 AM 6.1 °F -10.9 °F 1.0 °F 80% 30.48 in 3.0 mi North 13.8 mph - 0.01 in Snow Light Snow
1:54 AM 7.0 °F -11.0 °F -4.0 °F 61% 30.57 in 10.0 mi North 16.1 mph - 0.01 in   Overcast
2:54 AM 6.1 °F -10.2 °F -4.0 °F 63% 30.57 in 10.0 mi North 12.7 mph - 0.00 in   Clear
3:54 AM 3.9 °F -13.7 °F -5.1 °F 66% 30.56 in 10.0 mi North 13.8 mph - 0.00 in   Clear
4:54 AM 3.0 °F -10.5 °F -8.0 °F 60% 30.56 in 10.0 mi NNE 8.1 mph - 0.00 in   Clear
5:54 AM 1.0 °F -11.7 °F -8.0 °F 66% 30.56 in 10.0 mi NNE 6.9 mph - N/A   Clear
6:54 AM -4.0 °F -17.8 °F -9.9 °F 76% 30.58 in 10.0 mi NNW 6.9 mph - N/A   Clear
7:54 AM 1.0 °F -11.7 °F -7.1 °F 69% 30.59 in 10.0 mi North 6.9 mph - N/A   Clear
8:54 AM 3.9 °F -13.0 °F -7.1 °F 60% 30.60 in 10.0 mi NNE 12.7 mph - 0.00 in   Clear
9:54 AM 7.0 °F -5.7 °F -5.1 °F 58% 30.62 in 10.0 mi North 8.1 mph - 0.00 in   Clear
10:54 AM 9.0 °F 2.4 °F -4.0 °F 56% 30.62 in 10.0 mi NNE 3.5 mph - N/A   Clear
11:54 AM 10.9 °F - -2.9 °F 54% 30.56 in 10.0 mi Calm Calm - N/A   Clear
12:54 PM 15.1 °F 9.4 °F -2.0 °F 47% 30.54 in 10.0 mi WNW 3.5 mph - N/A   Clear
1:54 PM 15.1 °F - 1.0 °F 54% 30.49 in 10.0 mi Calm Calm - N/A   Clear
2:54 PM 17.1 °F 11.7 °F -0.9 °F 45% 30.45 in 10.0 mi Variable 3.5 mph - N/A   Clear
3:54 PM 17.1 °F - -0.0 °F 47% 30.42 in 10.0 mi Calm Calm - N/A   Clear
4:54 PM 19.0 °F 10.0 °F -0.0 °F 43% 30.39 in 10.0 mi NE 6.9 mph - N/A   Clear
5:54 PM 18.0 °F 11.1 °F 3.0 °F 52% 30.39 in 10.0 mi SW 4.6 mph - N/A   Clear
6:54 PM 16.0 °F 10.4 °F 3.9 °F 59% 30.38 in 10.0 mi SSW 3.5 mph - N/A   Clear
7:54 PM 12.9 °F - 5.0 °F 71% 30.38 in 10.0 mi Calm Calm - N/A   Clear
8:54 PM 12.0 °F 2.7 °F 1.0 °F 61% 30.40 in 10.0 mi WSW 5.8 mph - N/A   Clear
9:54 PM 10.0 °F 3.6 °F 1.0 °F 67% 30.39 in 10.0 mi South 3.5 mph - N/A   Clear
10:54 PM 9.0 °F 2.4 °F -0.0 °F 67% 30.36 in 10.0 mi South 3.5 mph - N/A   Clear
11:54 PM 9.0 °F 2.4 °F -0.0 °F 67% 30.31 in 10.0 mi SE 3.5 mph - N/A   Clear